Location: *
(32.8140°S, 174.6161°E)
Time: 14:28:15
(UTC+00:00)

Cosmos 2061 Rocket - Pass Details

Date: 10 December 2019
Orbit: 967 x 1012 km, 82.9° (Epoch: 16 January)

Event Time Altitude Azimuth Distance (km) Brightness Sun altitude
Rises 14:14:43 0° 187° (S) 3,732 7.8 -27.3°
Reaches altitude 10° 14:17:16 10° 187° (S) 2,771 7.0 -27.0°
Maximum altitude 14:23:38 88° 275° (W) 991 3.9 -26.3°
Enters shadow 14:24:56 59° 0° (N) 1,122 4.0 -26.1°
